FLOCK 4V-16

Last updated on Thu Oct 29 2020 00:02:02 GMT+0000 (Coordinated Universal Time)

1 46527U 20061BD 20302.16795622 .00000812 00000-0 47539-4 0 9991 2 46527 97.4665 14.2626 0009914 43.7585 316.4430 15.14563332 4366
UTC large
Height (km)
Speed (km/s)
/
Latitude / Longitude
Inclination (degrees)
Orbital Period (minutes)
Azimuth
Elevation
Range (km)
Doppler Factor

Next 0 passes for location: London (51.5072 / 0.1276)

Sorry there are no passes over London.